Location: BGSU Observatory
(41.3799°N, 83.6397°W)
Time: 05:46:15
(UTC-05:00)

Amateur Radio Satellites - All Passes

Search period start: 10 February 2016 05:16
Search period end: 11 February 2016 05:16
Location: BGSU Observatory, 41.3799°N, 83.6397°W

Satellite Date Start Highest point End Downlink Frequencies (MHz)
Time Altitude Azimuth
SO-50 10 Feb 05:41:44 05:46:38 76° 304° (NW) 05:51:37 436.795
HORYU 2 10 Feb 05:52:28 05:56:28 34° 290° (WNW) 06:00:28 437.375
STRAND 1 10 Feb 05:54:30 05:58:34 24° 65° (ENE) 06:02:39 437.568
Cosmos 2504 10 Feb 05:57:16 06:05:50 74° 280° (W) 06:14:46 435.465 / 435.565
M-CUBED/EXP-1 PRIME 10 Feb 06:05:28 06:07:37 16° 297° (WNW) 06:09:49 437.505
PHONESAT 2.4 10 Feb 06:05:53 06:08:41 26° 204° (SSW) 06:11:28 2401.200-2431.200
AO-7 10 Feb 06:07:25 06:14:38 34° 302° (WNW) 06:21:49 29.400- 29.500
AUBIESAT-1 10 Feb 06:15:09 06:17:15 15° 298° (WNW) 06:19:25 437.475
CUTE-I 10 Feb 06:31:16 06:36:24 44° 99° (E) 06:41:30 437.470
YUBILEINY 10 Feb 06:35:19 06:38:04 12° 306° (NW) 06:40:50 435.215
PRISM 10 Feb 06:40:28 06:43:19 18° 65° (ENE) 06:46:11 437.425
GOMX 1 10 Feb 06:41:08 06:42:53 12° 89° (E) 06:44:36 467.674
Cubesat XI-IV 10 Feb 06:44:57 06:50:16 58° 101° (E) 06:55:33 437.490
CUBESAT XI-V 10 Feb 06:48:47 06:51:30 15° 270° (W) 06:54:12 437.345
BRITE-PL 10 Feb 07:12:30 07:17:13 59° 100° (E) 07:21:32 437.365/2234.400
LilacSat-2 10 Feb 07:17:05 07:20:49 58° 285° (WNW) 07:24:31 437.200
SO-50 10 Feb 07:25:14 07:27:59 15° 324° (NW) 07:30:45 436.795
STRAND 1 10 Feb 07:32:41 07:37:29 41° 262° (W) 07:42:21 437.568
Cosmos 2504 10 Feb 07:56:02 08:00:56 16° 302° (WNW) 08:05:56 435.465 / 435.565
DOVE 4 10 Feb 07:56:53 08:00:54 41° 98° (E) 08:04:49 437.250
GONETS M04 10 Feb 08:01:50 08:08:14 24° 80° (E) 08:14:38
HO-68 10 Feb 08:06:47 08:13:06 32° 96° (E) 08:19:23 435.675
CANX-2 10 Feb 08:09:04 08:12:42 26° 95° (E) 08:16:20 2200.000
CUTE-I 10 Feb 08:11:51 08:16:11 25° 295° (WNW) 08:20:31 437.470
PRISM 10 Feb 08:14:28 08:18:21 39° 261° (W) 08:22:18 437.425
GOMX 1 10 Feb 08:17:06 08:21:28 56° 286° (WNW) 08:25:35 467.674
O/OREOS (USA 219) 10 Feb 08:23:51 08:28:19 79° 109° (ESE) 08:32:51 437.305
Cubesat XI-IV 10 Feb 08:26:06 08:29:53 20° 298° (WNW) 08:33:39 437.490
CINEMA 3 10 Feb 08:48:52 08:52:56 52° 100° (E) 08:57:01 145.822/145.860
COMPASS 1 10 Feb 08:50:26 08:54:22 37° 97° (E) 08:58:17 437.405
BRITE-PL 10 Feb 08:52:31 08:55:05 15° 299° (WNW) 08:57:34 437.365/2234.400
Oscar 11 10 Feb 08:53:46 08:56:02 14° 91° (E) 08:58:17 145.826/435.025
CUBEBUG 2 10 Feb 08:54:12 08:57:25 21° 94° (E) 09:00:40 437.445
UWE-3 10 Feb 08:54:50 08:57:23 15° 92° (E) 08:59:56 435.000/436.395/437.385
CUTE 1.7 + AOD 2 10 Feb 08:59:10 09:03:29 87° 102° (ESE) 09:07:47 437.475
SEEDS 10 Feb 09:04:58 09:09:14 76° 101° (E) 09:13:30 437.485
Cosmos 2499 10 Feb 09:06:24 09:13:25 28° 82° (E) 09:20:31 435.465 / 435.565
UNISAT 6 10 Feb 09:13:02 09:16:07 20° 66° (ENE) 09:19:13 437.425
AAUSAT CUBESAT 2 10 Feb 09:18:36 09:22:48 64° 101° (E) 09:26:58 437.432
DOVE 4 10 Feb 09:35:35 09:38:17 17° 295° (WNW) 09:40:56 437.250
CANX-2 10 Feb 09:44:53 09:48:30 27° 291° (WNW) 09:52:05 2200.000
ZACube-1 10 Feb 09:46:58 09:50:58 41° 98° (E) 09:55:02 437.345
POPSAT HIP 1 10 Feb 09:53:11 09:55:05 13° 63° (ENE) 09:57:01 437.405
HO-68 10 Feb 09:54:07 10:01:00 50° 294° (WNW) 10:07:52 435.675
GONETS M04 10 Feb 09:55:28 10:04:07 72° 279° (W) 10:12:52
FUNcube-1 10 Feb 09:55:46 09:59:53 49° 100° (E) 10:04:02 145.935
ANTELSAT 10 Feb 09:56:44 10:00:57 57° 74° (ENE) 10:05:09 437.575/2403.000
NANOSAT C BR1 10 Feb 09:57:19 09:59:31 14° 64° (ENE) 10:01:42 145.865
DUCHIFAT 1 10 Feb 09:58:38 10:00:46 14° 64° (ENE) 10:02:55 145.980
HUMSAT D 10 Feb 10:03:21 10:06:16 18° 93° (E) 10:09:11 437.325/437.525
TIGRISAT 10 Feb 10:03:26 10:07:42 65° 75° (ENE) 10:11:56 435.000
QB50P1 10 Feb 10:04:47 10:07:35 17° 65° (ENE) 10:10:23 145.935-145.965
O/OREOS (USA 219) 10 Feb 10:06:28 10:08:20 12° 309° (NW) 10:10:14 437.305
AIST 1 10 Feb 10:23:49 10:27:35 28° 90° (E) 10:31:22
COMPASS 1 10 Feb 10:26:41 10:29:41 19° 294° (WNW) 10:32:41 437.405
CINEMA 3 10 Feb 10:27:37 10:29:40 13° 296° (WNW) 10:31:42 145.822/145.860
Oscar 11 10 Feb 10:28:14 10:32:28 52° 287° (WNW) 10:36:41 145.826/435.025
DELFI C3 10 Feb 10:29:35 10:33:39 89° 271° (W) 10:37:42 145.870
UWE-3 10 Feb 10:30:04 10:34:03 43° 287° (WNW) 10:38:07 435.000/436.395/437.385
CUBEBUG 2 10 Feb 10:30:23 10:34:06 32° 290° (WNW) 10:37:52 437.445
AO-85 10 Feb 10:41:59 10:47:17 71° 119° (ESE) 10:52:47 145.980
ESTCUBE 1 10 Feb 10:42:57 10:44:04 11° 89° (E) 10:45:11 437.505/2401.250
SEEDS 10 Feb 10:43:31 10:44:20 10° 298° (WNW) 10:45:09 437.485
UNISAT 6 10 Feb 10:48:36 10:52:37 37° 262° (W) 10:56:36 437.425
POLYITAN 1 10 Feb 10:55:55 11:00:06 63° 74° (ENE) 11:04:18 437.675
AAUSAT CUBESAT 2 10 Feb 10:56:11 10:57:45 12° 297° (WNW) 10:59:19 437.432
QB50P2 10 Feb 10:56:31 11:00:43 66° 75° (ENE) 11:04:56 145.880/145.840
BUGSAT 1 10 Feb 10:56:42 11:00:23 30° 70° (ENE) 11:04:03 437.445
Cosmos 2499 10 Feb 10:57:10 11:05:49 66° 281° (WNW) 11:14:41 435.465 / 435.565
PCSat 10 Feb 10:59:08 11:04:26 58° 115° (ESE) 11:09:46 145.827
RS-15 10 Feb 11:15:36 11:25:58 48° 110° (ESE) 11:36:49 29.354- 29.394
ZACube-1 10 Feb 11:24:11 11:26:59 18° 294° (WNW) 11:29:49 437.345
POPSAT HIP 1 10 Feb 11:26:12 11:30:23 59° 259° (WSW) 11:34:35 437.405
NANOSAT C BR1 10 Feb 11:30:41 11:34:49 54° 260° (W) 11:38:58 145.865
DUCHIFAT 1 10 Feb 11:31:54 11:36:02 54° 259° (W) 11:40:11 145.980
FUNcube-1 10 Feb 11:33:22 11:35:45 15° 295° (WNW) 11:38:10 145.935
ANTELSAT 10 Feb 11:36:18 11:38:02 12° 269° (W) 11:39:45 437.575/2403.000
VELOX 1 10 Feb 11:36:33 11:40:38 35° 98° (E) 11:44:40 145.980
HUMSAT D 10 Feb 11:38:12 11:42:01 37° 289° (WNW) 11:45:54 437.325/437.525
QB50P1 10 Feb 11:39:02 11:43:03 42° 261° (W) 11:47:05 145.935-145.965
JAS-2 10 Feb 11:42:55 11:47:22 17° 58° (ENE) 11:51:35 435.910
TIGRISAT 10 Feb 11:43:52 11:44:49 11° 270° (W) 11:45:46 435.000
Oscar 19 10 Feb 11:44:33 11:47:19 15° 60° (ENE) 11:50:05 437.125/150
AISAT 10 Feb 11:53:08 11:57:29 57° 101° (E) 12:01:47 437.250
GONETS M04 10 Feb 11:58:19 12:02:42 15° 302° (WNW) 12:07:08
AIST 1 10 Feb 12:01:33 12:05:09 24° 286° (WNW) 12:08:46
UKube-1 10 Feb 12:03:22 12:07:41 65° 102° (ESE) 12:11:57 .
50 SAT 10 Feb 12:11:23 12:15:10 64° 284° (WNW) 12:18:56 437.505
CUBEBUG 1 10 Feb 12:11:26 12:15:49 75° 101° (E) 12:20:09 437.445
SPROUT 10 Feb 12:12:17 12:15:53 26° 95° (E) 12:19:28 437.525
DX 1 10 Feb 12:16:15 12:20:37 77° 285° (WNW) 12:24:56 434.975-435.025
ESTCUBE 1 10 Feb 12:16:49 12:21:23 72° 285° (WNW) 12:25:53 437.505/2401.250
Gurwin Techsat 1B 10 Feb 12:20:20 12:22:21 12° 58° (ENE) 12:24:22 435.225
TISAT 1 10 Feb 12:21:19 12:22:39 11° 90° (E) 12:24:00 437.305
AO-85 10 Feb 12:24:06 12:28:23 23° 319° (NW) 12:32:42 145.980
CUSAT 1 10 Feb 12:24:41 12:29:53 31° 67° (ENE) 12:33:57 437.405
BUGSAT 1 10 Feb 12:32:30 12:35:47 22° 265° (W) 12:39:05 437.445
SO-50 10 Feb 12:34:01 12:37:07 17° 38° (NE) 12:40:09 436.795
POLYITAN 1 10 Feb 12:35:16 12:36:19 11° 270° (W) 12:37:22 437.675
QB50P2 10 Feb 12:36:20 12:36:58 10° 270° (W) 12:37:36 145.880/145.840
PCSat 10 Feb 12:43:53 12:48:12 24° 313° (NW) 12:52:33 145.827
YUBILEINY 10 Feb 12:46:13 12:50:36 14° 57° (ENE) 12:54:57 435.215
ITAMSAT 1 10 Feb 12:54:53 12:57:18 13° 59° (ENE) 12:59:43 435.822/435.867
Cosmos 2499 10 Feb 12:56:38 13:00:50 14° 303° (WNW) 13:05:05 435.465 / 435.565
DANDE 10 Feb 13:01:27 13:08:08 42° 70° (ENE) 13:13:17 436.750
VELOX 1 10 Feb 13:13:32 13:16:53 22° 294° (WNW) 13:20:13 145.980
Oscar 19 10 Feb 13:20:48 13:26:00 76° 257° (WSW) 13:31:12 437.125/150
JAS-2 10 Feb 13:23:51 13:31:33 83° 74° (ENE) 13:38:34 435.910
AO-7 10 Feb 13:24:20 13:29:35 19° 49° (NE) 13:34:50 29.400- 29.500
RS-15 10 Feb 13:27:19 13:38:13 54° 313° (NW) 13:49:48 29.354- 29.394
AISAT 10 Feb 13:31:09 13:33:30 14° 297° (WNW) 13:35:49 437.250
UKube-1 10 Feb 13:41:21 13:43:11 13° 298° (WNW) 13:45:01 .
SPROUT 10 Feb 13:48:14 13:51:48 26° 292° (WNW) 13:55:21 437.525
CUBEBUG 1 10 Feb 13:50:16 13:51:29 11° 299° (WNW) 13:52:41 437.445
TISAT 1 10 Feb 13:54:35 13:58:43 58° 286° (WNW) 14:02:47 437.305
Gurwin Techsat 1B 10 Feb 13:56:10 14:01:29 87° 71° (ENE) 14:06:50 435.225
CUSAT 1 10 Feb 14:07:12 14:12:00 28° 275° (W) 14:15:49 437.405
SWISSCUBE 10 Feb 14:10:33 14:15:02 37° 98° (E) 14:19:28 437.505
SO-50 10 Feb 14:13:26 14:18:17 84° 241° (WSW) 14:22:56 436.795
ITAMSAT 1 10 Feb 14:30:51 14:36:02 84° 256° (WSW) 14:41:17 435.822/435.867
YUBILEINY 10 Feb 14:40:22 14:49:14 71° 80° (E) 14:58:00 435.215
DANDE 10 Feb 14:44:56 14:50:44 30° 276° (W) 14:55:22 436.750
Cosmos 2491 10 Feb 14:46:25 14:54:16 40° 86° (E) 15:02:07 435.465 / 435.565
ITUPSAT 1 10 Feb 14:47:29 14:52:19 79° 104° (ESE) 14:57:08 437.325
KKS-1 10 Feb 14:50:57 14:52:14 11° 90° (E) 14:53:32 437.445
BEESAT 10 Feb 14:55:34 15:00:23 84° 283° (WNW) 15:05:11 436.000
JAS-2 10 Feb 15:11:59 15:17:04 19° 269° (W) 15:21:56 435.910
AO-7 10 Feb 15:12:42 15:21:03 77° 69° (ENE) 15:29:25 29.400- 29.500
HORYU 2 10 Feb 15:14:46 15:18:08 22° 66° (ENE) 15:21:31 437.375
M-CUBED/EXP-1 PRIME 10 Feb 15:17:27 15:20:54 42° 69° (ENE) 15:24:10 437.505
ISS 10 Feb 15:26:03 15:28:51 27° 135° (SE) 15:31:40 145.825
AUBIESAT-1 10 Feb 15:26:39 15:30:06 44° 68° (ENE) 15:33:23 437.475
Gurwin Techsat 1B 10 Feb 15:40:33 15:42:06 11° 272° (W) 15:43:39 435.225
RS-15 10 Feb 15:45:18 15:54:16 25° 345° (NNW) 16:03:35 29.354- 29.394
SWISSCUBE 10 Feb 15:48:47 15:52:37 24° 294° (WNW) 15:56:27 437.505
Cosmos 2504 10 Feb 15:50:38 15:58:50 44° 73° (ENE) 16:06:28 435.465 / 435.565
STARS 10 Feb 16:06:09 16:10:17 40° 99° (E) 16:14:23 437.465
MOZHAYETS 4 10 Feb 16:23:08 16:27:37 46° 99° (E) 16:32:05
KKS-1 10 Feb 16:24:51 16:29:16 67° 285° (WNW) 16:33:38 437.445
ITUPSAT 1 10 Feb 16:27:28 16:29:30 13° 300° (WNW) 16:31:31 437.325
BEESAT 3 10 Feb 16:28:43 16:31:18 17° 111° (ESE) 16:33:54 437.485
Cubesat XI-IV 10 Feb 16:30:35 16:33:04 13° 58° (ENE) 16:35:33 437.490
BEESAT 10 Feb 16:36:52 16:37:23 10° 302° (WNW) 16:37:52 436.000
YUBILEINY 10 Feb 16:38:29 16:45:09 25° 280° (W) 16:51:49 435.215
Cosmos 2491 10 Feb 16:42:42 16:50:56 45° 286° (WNW) 16:59:14 435.465 / 435.565
BRITE-PL 10 Feb 16:48:31 16:49:50 11° 58° (ENE) 16:51:09 437.365/2234.400
HORYU 2 10 Feb 16:50:28 16:54:30 35° 262° (W) 16:58:34 437.375
BEESAT 2 10 Feb 16:53:46 16:56:45 20° 112° (ESE) 16:59:45 435.950
M-CUBED/EXP-1 PRIME 10 Feb 16:54:27 16:55:42 11° 261° (W) 16:56:56 437.505
O/OREOS (USA 219) 10 Feb 16:55:29 16:58:33 17° 54° (NE) 17:01:38 437.305
ISS 10 Feb 17:02:10 17:05:13 37° 332° (NNW) 17:08:16 145.825
AUBIESAT-1 10 Feb 17:03:57 17:04:51 11° 262° (W) 17:05:45 437.475
CUBESAT XI-V 10 Feb 17:07:20 17:09:47 14° 90° (E) 17:12:13 437.345
AO-7 10 Feb 17:08:17 17:14:32 23° 267° (W) 17:20:51 29.400- 29.500
AO-85 10 Feb 17:35:25 17:37:52 13° 32° (NNE) 17:40:14 145.980
STARS 10 Feb 17:43:17 17:46:22 19° 295° (WNW) 17:49:26 437.465
Cosmos 2504 10 Feb 17:44:18 17:52:04 40° 274° (W) 17:59:22 435.465 / 435.565
GOMX 1 10 Feb 17:47:55 17:51:36 19° 65° (ENE) 17:55:11 467.674
CUTE-I 10 Feb 17:53:06 17:58:23 72° 73° (ENE) 18:03:44 437.470
LilacSat-2 10 Feb 17:58:51 18:02:38 65° 76° (ENE) 18:06:25 437.200
MOZHAYETS 4 10 Feb 18:01:13 18:04:26 19° 295° (WNW) 18:07:39
RS-15 10 Feb 18:02:40 18:12:21 27° 21° (NNE) 18:22:14 29.354- 29.394
BEESAT 3 10 Feb 18:04:56 18:08:44 43° 307° (NW) 18:12:34 437.485
Cubesat XI-IV 10 Feb 18:07:03 18:12:22 87° 253° (WSW) 18:17:46 437.490
GONETS M04 10 Feb 18:12:55 18:15:12 11° 54° (NE) 18:17:30
BRITE-PL 10 Feb 18:21:43 18:27:23 71° 74° (ENE) 18:32:55 437.365/2234.400
BEESAT 2 10 Feb 18:30:41 18:34:25 36° 309° (NW) 18:38:11 435.950
O/OREOS (USA 219) 10 Feb 18:33:49 18:38:18 53° 252° (WSW) 18:42:46 437.305
HO-68 10 Feb 18:36:17 18:41:54 26° 58° (ENE) 18:47:32 435.675
ISS 10 Feb 18:40:26 18:42:22 15° 352° (N) 18:44:17 145.825
CUBESAT XI-V 10 Feb 18:42:54 18:47:33 59° 286° (WNW) 18:52:09 437.345
AIST 2 10 Feb 18:54:03 18:57:57 40° 116° (ESE) 19:01:52 435.215
DOVE 4 10 Feb 19:01:32 19:06:23 47° 73° (ENE) 19:11:01 437.250
CANX-2 10 Feb 19:02:30 19:05:32 20° 66° (ENE) 19:08:36 2200.000
AO-85 10 Feb 19:14:25 19:19:34 60° 54° (NE) 19:24:15 145.980
GOMX 1 10 Feb 19:23:56 19:29:16 58° 260° (W) 19:34:23 467.674
CUTE-I 10 Feb 19:36:12 19:38:58 14° 270° (W) 19:41:45 437.470
COMPASS 1 10 Feb 19:41:38 19:45:04 25° 69° (ENE) 19:48:31 437.405
STRAND 1 10 Feb 19:42:39 19:47:48 66° 102° (ESE) 19:52:56 437.568
PCSat 10 Feb 19:46:56 19:52:11 47° 55° (NE) 19:57:24 145.827
Oscar 11 10 Feb 19:49:48 19:51:20 12° 62° (ENE) 19:52:51 145.826/435.025
CINEMA 3 10 Feb 19:50:12 19:54:40 50° 73° (ENE) 19:58:57 145.822/145.860
CUTE 1.7 + AOD 2 10 Feb 19:51:41 19:55:49 60° 74° (ENE) 19:59:59 437.475
UWE-3 10 Feb 19:52:55 19:55:00 14° 64° (ENE) 19:57:05 435.000/436.395/437.385
CUBEBUG 2 10 Feb 19:52:57 19:55:58 19° 67° (ENE) 19:58:56 437.445
Cubesat XI-IV 10 Feb 19:53:03 19:53:11 10° 272° (W) 19:53:20 437.490
PRISM 10 Feb 19:56:16 19:59:49 27° 96° (E) 20:03:21 437.425
SEEDS 10 Feb 19:56:38 20:00:40 50° 74° (ENE) 20:04:45 437.485
BRITE-PL 10 Feb 20:02:50 20:06:16 16° 270° (W) 20:09:40 437.365/2234.400
GONETS M04 10 Feb 20:05:33 20:14:14 58° 77° (ENE) 20:22:54
AAUSAT CUBESAT 2 10 Feb 20:08:55 20:12:48 41° 72° (ENE) 20:16:44 437.432
RS-15 10 Feb 20:15:51 20:27:55 64° 51° (NE) 20:40:08 29.354- 29.394
ISS 10 Feb 20:17:39 20:19:48 16° 12° (NNE) 20:21:56 145.825
HO-68 10 Feb 20:21:55 20:29:02 67° 257° (WSW) 20:36:13 435.675
AIST 2 10 Feb 20:33:17 20:36:36 22° 314° (NW) 20:39:55 435.215
CANX-2 10 Feb 20:37:18 20:41:10 35° 263° (W) 20:45:04 2200.000
DOVE 4 10 Feb 20:40:35 20:44:15 20° 267° (W) 20:47:48 437.250
ZACube-1 10 Feb 20:43:05 20:46:49 32° 71° (ENE) 20:50:32 437.345
Cosmos 2499 10 Feb 20:49:17 20:57:23 48° 74° (ENE) 21:04:50 435.465 / 435.565
FUNcube-1 10 Feb 20:51:31 20:55:23 38° 72° (ENE) 20:59:14 145.935
HUMSAT D 10 Feb 20:56:03 20:58:02 13° 64° (ENE) 20:59:59 437.325/437.525
AO-85 10 Feb 20:56:17 20:59:28 17° 253° (WSW) 21:02:29 145.980
DELFI C3 10 Feb 21:15:44 21:19:34 51° 74° (ENE) 21:23:28 145.870
COMPASS 1 10 Feb 21:17:05 21:20:34 26° 265° (W) 21:24:05 437.405
Oscar 11 10 Feb 21:22:36 21:26:52 69° 258° (WSW) 21:31:10 145.826/435.025
STRAND 1 10 Feb 21:23:16 21:26:26 17° 299° (WNW) 21:29:35 437.568
UWE-3 10 Feb 21:26:53 21:31:03 54° 260° (W) 21:35:10 435.000/436.395/437.385
CUBEBUG 2 10 Feb 21:28:20 21:32:22 38° 262° (W) 21:36:19 437.445
CINEMA 3 10 Feb 21:29:18 21:32:02 15° 268° (W) 21:34:43 145.822/145.860
CUTE 1.7 + AOD 2 10 Feb 21:30:44 21:32:03 11° 270° (W) 21:33:23 437.475
PCSat 10 Feb 21:30:56 21:35:17 25° 253° (WSW) 21:39:37 145.827
PRISM 10 Feb 21:31:37 21:35:04 25° 292° (WNW) 21:38:29 437.425
SEEDS 10 Feb 21:34:40 21:36:41 13° 269° (W) 21:38:42 437.485
ESTCUBE 1 10 Feb 21:43:00 21:44:26 11° 61° (ENE) 21:45:52 437.505/2401.250
AAUSAT CUBESAT 2 10 Feb 21:45:59 21:48:31 16° 268° (W) 21:51:03 437.432
ANTELSAT 10 Feb 21:50:17 21:51:49 12° 90° (E) 21:53:22 437.575/2403.000
ISS 10 Feb 21:53:38 21:56:48 52° 31° (NNE) 21:59:58 145.825
TIGRISAT 10 Feb 21:56:22 21:58:25 13° 91° (E) 22:00:28 435.000
GONETS M04 10 Feb 22:03:11 22:10:30 31° 277° (W) 22:17:51
AIST 1 10 Feb 22:07:31 22:11:53 83° 84° (E) 22:16:11
ZACube-1 10 Feb 22:20:01 22:23:11 20° 266° (W) 22:26:19 437.345
RS-15 10 Feb 22:28:55 22:39:56 42° 253° (WSW) 22:51:02 29.354- 29.394
FUNcube-1 10 Feb 22:29:00 22:31:48 17° 267° (W) 22:34:34 145.935
HUMSAT D 10 Feb 22:29:15 22:33:14 52° 260° (W) 22:37:14 437.325/437.525
VELOX 1 10 Feb 22:33:55 22:37:54 33° 69° (ENE) 22:41:54 145.980
UNISAT 6 10 Feb 22:39:41 22:43:49 41° 99° (E) 22:48:00 437.425
Cosmos 2499 10 Feb 22:42:54 22:50:10 35° 276° (W) 22:56:59 435.465 / 435.565
QB50P2 10 Feb 22:44:20 22:45:05 10° 90° (E) 22:45:50 145.880/145.840
AISAT 10 Feb 22:50:22 22:54:42 52° 72° (ENE) 22:59:02 437.250
50 SAT 10 Feb 22:51:26 22:55:04 59° 75° (ENE) 22:58:45 437.505
DELFI C3 10 Feb 22:53:20 22:54:49 12° 270° (W) 22:56:17 145.870
UKube-1 10 Feb 22:57:45 23:01:59 55° 73° (ENE) 23:06:15 .
SPROUT 10 Feb 23:06:26 23:09:42 22° 67° (ENE) 23:12:59 437.525
CUBEBUG 1 10 Feb 23:07:05 23:11:28 62° 74° (ENE) 23:15:51 437.445
DX 1 10 Feb 23:11:25 23:15:49 89° 265° (W) 23:20:14 434.975-435.025
POPSAT HIP 1 10 Feb 23:11:40 23:14:52 21° 94° (E) 23:18:04 437.405
NANOSAT C BR1 10 Feb 23:15:37 23:18:58 23° 95° (E) 23:22:16 145.865
ESTCUBE 1 10 Feb 23:16:03 23:20:35 79° 257° (WSW) 23:25:09 437.505/2401.250
DUCHIFAT 1 10 Feb 23:16:37 23:19:55 22° 95° (E) 23:23:11 145.980
QB50P1 10 Feb 23:23:51 23:27:32 29° 96° (E) 23:31:11 145.935-145.965
ANTELSAT 10 Feb 23:24:37 23:28:55 63° 286° (WNW) 23:33:17 437.575/2403.000
ISS 10 Feb 23:30:43 23:33:00 18° 228° (SW) 23:35:16 145.825
TIGRISAT 10 Feb 23:31:11 23:35:26 56° 286° (WNW) 23:39:44 435.000
VELOX 1 11 Feb 00:10:51 00:14:25 23° 265° (W) 00:18:00 145.980
BUGSAT 1 11 Feb 00:13:20 00:17:17 49° 100° (E) 00:21:09 437.445
POLYITAN 1 11 Feb 00:16:32 00:20:43 68° 285° (WNW) 00:24:53 437.675
QB50P2 11 Feb 00:17:08 00:21:19 65° 286° (WNW) 00:25:29 145.880/145.840
UNISAT 6 11 Feb 00:17:15 00:20:15 19° 294° (WNW) 00:23:18 437.425
ITUPSAT 1 11 Feb 00:20:34 00:21:48 11° 59° (ENE) 00:23:03 437.325
PHONESAT 2.4 11 Feb 00:20:41 00:22:57 17° 151° (SSE) 00:25:13 2401.200-2431.200
BEESAT 11 Feb 00:27:15 00:29:27 13° 60° (ENE) 00:31:39 436.000
AISAT 11 Feb 00:28:56 00:31:29 15° 268° (W) 00:34:02 437.250
UKube-1 11 Feb 00:36:16 00:38:23 13° 269° (W) 00:40:29 .
SPROUT 11 Feb 00:41:35 00:45:28 33° 263° (W) 00:49:24 437.525
TISAT 1 11 Feb 00:45:56 00:50:10 81° 257° (WSW) 00:54:24 437.305
BEESAT 3 11 Feb 00:45:57 00:48:00 14° 41° (NE) 00:50:04 437.485
CUBEBUG 1 11 Feb 00:46:21 00:48:08 12° 270° (W) 00:49:57 437.445
POPSAT HIP 1 11 Feb 00:46:59 00:50:43 32° 290° (WNW) 00:54:26 437.405
NANOSAT C BR1 11 Feb 00:51:04 00:54:43 29° 291° (WNW) 00:58:20 145.865
DUCHIFAT 1 11 Feb 00:51:59 00:55:39 30° 290° (WNW) 00:59:17 145.980
Cosmos 2491 11 Feb 00:56:56 01:02:52 19° 62° (ENE) 01:08:48 435.465 / 435.565
QB50P1 11 Feb 00:59:50 01:03:11 24° 292° (WNW) 01:06:32 145.935-145.965
BEESAT 2 11 Feb 01:11:50 01:14:21 16° 42° (NE) 01:16:50 435.950
SWISSCUBE 11 Feb 01:17:00 01:21:30 43° 70° (ENE) 01:26:01 437.505
CUSAT 1 11 Feb 01:24:18 01:31:46 45° 91° (E) 01:39:16 437.405
Oscar 19 11 Feb 01:32:32 01:37:18 37° 98° (E) 01:42:01 437.125/150
KKS-1 11 Feb 01:49:28 01:51:06 12° 61° (ENE) 01:52:43 437.445
YUBILEINY 11 Feb 01:49:46 01:54:14 15° 75° (ENE) 01:58:41 435.215
BUGSAT 1 11 Feb 01:50:13 01:52:14 14° 296° (WNW) 01:54:15 437.445
ITUPSAT 1 11 Feb 01:54:07 01:58:54 89° 271° (W) 02:03:43 437.325
PHONESAT 2.4 11 Feb 01:56:37 01:59:50 55° 167° (SSE) 02:03:03 2401.200-2431.200
BEESAT 11 Feb 02:01:52 02:06:37 74° 257° (WSW) 02:11:25 436.000
DANDE 11 Feb 02:06:38 02:14:09 54° 91° (E) 02:22:21 436.750
Gurwin Techsat 1B 11 Feb 02:12:36 02:17:26 34° 97° (E) 02:22:14 435.225
JAS-2 11 Feb 02:19:32 02:25:10 70° 102° (ESE) 02:30:21 435.910
BEESAT 3 11 Feb 02:22:18 02:26:16 74° 238° (WSW) 02:30:10 437.485
ITAMSAT 1 11 Feb 02:43:53 02:48:39 34° 97° (E) 02:53:23 435.822/435.867
BEESAT 2 11 Feb 02:48:40 02:52:36 59° 241° (WSW) 02:56:30 435.950
Cosmos 2491 11 Feb 02:52:10 03:00:58 90° 251° (WSW) 03:09:46 435.465 / 435.565
SWISSCUBE 11 Feb 02:56:00 02:59:29 20° 267° (W) 03:02:58 437.505
STARS 11 Feb 03:02:49 03:06:51 36° 70° (ENE) 03:10:53 437.465
CUSAT 1 11 Feb 03:06:32 03:14:04 43° 288° (WNW) 03:21:35 437.405
Oscar 19 11 Feb 03:12:12 03:16:26 27° 294° (WNW) 03:20:40 437.125/150
AO-7 11 Feb 03:15:21 03:21:48 24° 93° (E) 03:28:10 29.400- 29.500
AIST 2 11 Feb 03:15:27 03:19:05 28° 49° (NE) 03:22:40 435.215
KKS-1 11 Feb 03:22:36 03:27:04 74° 258° (WSW) 03:31:32 437.445
MOZHAYETS 4 11 Feb 03:24:59 03:29:17 43° 72° (ENE) 03:33:38
PHONESAT 2.4 11 Feb 03:33:44 03:37:01 76° 184° (S) 03:40:17 2401.200-2431.200
YUBILEINY 11 Feb 03:40:43 03:49:29 80° 95° (E) 03:58:20 435.215
DANDE 11 Feb 03:50:13 03:57:25 37° 291° (WNW) 04:05:08 436.750
Gurwin Techsat 1B 11 Feb 03:52:40 03:57:18 31° 293° (WNW) 04:01:54 435.225
JAS-2 11 Feb 04:06:14 04:09:31 16° 302° (WNW) 04:12:40 435.910
CUBESAT XI-V 11 Feb 04:11:01 04:13:40 15° 63° (ENE) 04:16:19 437.345
ITAMSAT 1 11 Feb 04:23:29 04:28:01 30° 294° (WNW) 04:32:31 435.822/435.867
SO-50 11 Feb 04:27:39 04:31:58 32° 114° (ESE) 04:36:22 436.795
Cosmos 2504 11 Feb 04:28:11 04:35:50 37° 85° (E) 04:43:42 435.465 / 435.565
M-CUBED/EXP-1 PRIME 11 Feb 04:31:00 04:34:03 29° 104° (ESE) 04:37:15 437.505
AUBIESAT-1 11 Feb 04:39:37 04:42:45 31° 104° (ESE) 04:46:02 437.475
STARS 11 Feb 04:40:03 04:43:19 20° 266° (W) 04:46:37 437.465
HORYU 2 11 Feb 04:40:55 04:45:08 41° 99° (E) 04:49:20 437.375
Cosmos 2491 11 Feb 04:51:16 04:56:30 18° 283° (WNW) 05:01:46 435.465 / 435.565
AIST 2 11 Feb 04:53:58 04:57:32 28° 246° (WSW) 05:01:03 435.215
MOZHAYETS 4 11 Feb 05:03:31 05:06:40 18° 268° (W) 05:09:50
